Tracking 19794 objects as of 22-Jul-2019
HD Live streaming from Space Station
objects crossing your sky now

FENGYUN 1C DEB

Track FENGYUN 1C DEB now!
10-day predictions


NORAD ID: 32422
Int'l Code: 1999-025DAJ
Perigee: 692.6 km
Apogee: 1,145.1 km
Inclination: 97.9 °
Period: 103.2 minutes
Semi major axis: 7289 km
RCS: 0.0061 m2 (small)
Launch date: May 10, 1999
Source: People's Republic of China (PRC)
Launch site: Taiyaun Space Center, China (TSC)

Note: This is SATELLITE DEBRIS
aabbcc
Your satellite tracking list
Your tracking list is empty




NASA's NSSDC Master Catalog

Two Line Element Set (TLE):
1 32422U 99025DAJ 19202.04490040  .00000003  00000-0  17516-4 0  9990
2 32422  97.8613 287.1423 0310357  90.5296 273.1434 13.94845553597042
Source of the keplerian elements: AFSPC